Location: Rodson Ranch
(38.7188°N, 119.3202°W)
Time: 17:29:28
(UTC+00:00)

Cosmos 2180 Rocket - Pass Details

Date: 29 October 2020
Orbit: 953 x 1005 km, 82.9° (Epoch: 23 November)

Event Time Altitude Azimuth Distance (km) Brightness Sun altitude
Rises 12:11:03 0° 348° (NNW) 3,686 7.4 -26.0°
Reaches altitude 10° 12:13:38 10° 344° (NNW) 2,726 6.7 -25.5°
Enters shadow 12:16:58 32° 329° (NNW) 1,606 5.4 -24.8°
Exits shadow 12:19:17 53° 282° (WNW) 1,169 4.5 -24.4°
Maximum altitude 12:19:40 54° 269° (W) 1,158 4.5 -24.3°
Drops below altitude 10° 12:25:37 10° 193° (SSW) 2,680 6.7 -23.1°
Sets 12:28:08 0° 189° (S) 3,618 7.4 -22.7°
